COSMOS 1275 DEB, 42192

Orbit data source: Space-Track

COSMOS 1275 DEB, 42192 is space debris in LEO originally from a launch on Thu, 04 Jun 1981 UTC launched from the Plesetsk Missile And Space Complex (PKMTR). Debris objects in space refer to the collection of defunct objects orbiting the Earth. Examples of debris include non-operational satellites, rocket bodies, and fragments generated from explosions, collisions, or faulty payload assembly.

Loading next visibility...
Identifier
42192, 1981-053TG
Orbit
LEO
Country
Flag of CISCIS
Related business
Manufacturer
Unknown
Mission
Spacecraft
Bus & Motor
Unknown
Mass
Unknown
Launch date (UTC)
1981-06-04 (45 years ago)
Launch vehicle
Unknown
Launch site
Plesetsk Missile And Space Complex (PKMTR)
Object type
Payload
Rocket body
Debris
Shape & HBR
Unknown shape, 0.1 m
Radar Cross Section
Medium (>0.1 m² and <1 m²)

Expand to show TLE details & history
Last TLE update: 5 days ago

TLE from 5 days ago
0 COSMOS 1275 DEB
1 42192U 81053TG  26259.15974632  .00001092  00000-0  10518-2 0  9995
2 42192  83.0927  60.8486 0124940 292.0415  66.7510 13.75900056640465
Epoch: 2026-09-16T03:50Z
TLE epoch observation values (Epoch: 2026-09-16T03:50:02.082Z)
Latitude
0.00002°
Longitude
8.22459°
Altitude
946.059 km
Speed
7.396 km/s
True Right ascension
04h 03m 23s
True Declination
0° 00' 00"
Sunlit
Object was in daylight at epoch
Visualization orbit readout
Latitude
Unknown
Longitude
Unknown
Altitude
Unknown
Speed
Unknown
Apparent Right ascension
Unknown
Apparent Declination
Unknown
Sunlit
N/A
Visualization observer readout
Local Sidereal Time
08:18:33
Azimuth
Unknown
Elevation
Unknown
Doppler factor
Unknown
Orbital elements
Apogee altitude
1,067.484 km
Perigee altitude
883.728 km
Semi-major axis
7,353.743 km
Eccentricity
0.01249
Inclination
83.0927°
RAAN
60.8486°
Arg. of periapsis
292.0415°
True anomaly
68.07449°
Mean anomaly
66.751°
Eccentric anomaly
67.41194°
Mean motion
3.44176 °/min
Orbital period
104.6 mins
BSTAR
0.0010518
Loading maneuver chart data...
Computing Atmospheric mass density...

Documentation

Showing up to 5 results
|